Location: Albuquerque Trailhead
(34.7934°N, 106.3736°W)
Time: 15:10:31
(UTC+00:00)

ATLAS 5 CENTAUR R/B - Pass Details

Date: 20 June 2021
Orbit: 510 x 1148 km, 63.4° (Epoch: 23 July)

Event Time Altitude Azimuth Distance (km) Brightness Sun altitude
Exits shadow 09:15:27 27° 313° (NW) 1,060 2.8 -24.3°
Drops below altitude 10° 09:18:55 10° 9° (N) 1,895 4.9 -23.9°
Sets 09:21:34 0° 21° (NNE) 2,889 6.3 -23.6°
